Time,TemperatureF,DewpointF,PressureIn,WindDirection,WindDirectionDegrees,WindSpeedMPH,WindSpeedGustMPH,Humidity,HourlyPrecipIn,Conditions,Clouds,dailyrainin,SoftwareType,DateUTC
2013-08-04 00:07:00,72.7,62.7,29.78,West,270,4.7,-999.0,71,-99.99,,,0.00,Acu-Link.com,2013-08-04 04:07:00,
2013-08-04 00:23:00,72.3,62.4,29.78,North,0,3.7,-999.0,71,-99.99,,,0.00,Acu-Link.com,2013-08-04 04:23:00,
2013-08-04 00:38:00,72.1,62.2,29.78,WSW,247,3.2,-999.0,71,-99.99,,,0.00,Acu-Link.com,2013-08-04 04:38:00,
2013-08-04 00:53:00,71.6,62.1,29.78,WSW,247,3.7,-999.0,72,-99.99,,,0.00,Acu-Link.com,2013-08-04 04:53:00,
2013-08-04 01:08:00,71.6,62.1,29.78,WSW,247,4.2,-999.0,72,-99.99,,,0.00,Acu-Link.com,2013-08-04 05:08:00,
2013-08-04 01:23:00,71.4,61.9,29.78,WNW,292,5.3,-999.0,72,-99.99,,,0.00,Acu-Link.com,2013-08-04 05:23:00,
2013-08-04 01:38:00,71.1,62.0,29.78,WSW,247,3.2,-999.0,73,-99.99,,,0.00,Acu-Link.com,2013-08-04 05:38:00,
2013-08-04 01:53:00,70.9,61.8,29.77,NNW,337,3.7,-999.0,73,-99.99,,,0.00,Acu-Link.com,2013-08-04 05:53:00,
2013-08-04 02:09:00,70.5,61.8,29.77,West,270,0.0,-999.0,74,-99.99,,,0.00,Acu-Link.com,2013-08-04 06:09:00,
2013-08-04 02:24:00,70.3,61.6,29.78,WNW,292,3.2,-999.0,74,-99.99,,,0.00,Acu-Link.com,2013-08-04 06:24:00,
2013-08-04 02:39:00,70.2,61.5,29.77,West,270,2.7,-999.0,74,-99.99,,,0.00,Acu-Link.com,2013-08-04 06:39:00,
2013-08-04 02:55:00,70.2,60.7,29.78,NE,45,5.3,-999.0,72,-99.99,,,0.00,Acu-Link.com,2013-08-04 06:55:00,
2013-08-04 03:10:00,70.0,59.4,29.78,West,270,4.7,-999.0,69,-99.99,,,0.00,Acu-Link.com,2013-08-04 07:10:00,
2013-08-04 03:25:00,69.8,59.2,29.77,North,0,5.3,-999.0,69,-99.99,,,0.00,Acu-Link.com,2013-08-04 07:25:00,
2013-08-04 03:41:00,69.8,58.8,29.78,North,0,2.2,-999.0,68,-99.99,,,0.00,Acu-Link.com,2013-08-04 07:41:00,
2013-08-04 04:12:00,69.8,57.5,29.78,NW,315,0.0,-999.0,65,-99.99,,,0.00,Acu-Link.com,2013-08-04 08:12:00,
2013-08-04 04:27:00,69.6,56.4,29.78,NNW,337,2.2,-999.0,63,-99.99,,,0.00,Acu-Link.com,2013-08-04 08:27:00,
2013-08-04 04:42:00,69.4,56.2,29.78,NNE,22,2.7,-999.0,63,-99.99,,,0.00,Acu-Link.com,2013-08-04 08:42:00,
2013-08-04 04:57:00,69.4,55.8,29.78,NW,315,6.8,-999.0,62,-99.99,,,0.00,Acu-Link.com,2013-08-04 08:57:00,
2013-08-04 05:12:00,69.3,56.6,29.78,NW,315,4.7,-999.0,64,-99.99,,,0.00,Acu-Link.com,2013-08-04 09:12:00,
2013-08-04 05:27:00,68.9,56.2,29.78,NNE,22,5.3,-999.0,64,-99.99,,,0.00,Acu-Link.com,2013-08-04 09:27:00,
2013-08-04 05:42:00,68.5,55.4,29.78,NNE,22,4.7,-999.0,63,-99.99,,,0.00,Acu-Link.com,2013-08-04 09:42:00,
2013-08-04 05:58:00,68.2,55.5,29.79,ESE,112,4.2,-999.0,64,-99.99,,,0.00,Acu-Link.com,2013-08-04 09:58:00,
2013-08-04 06:13:00,68.2,56.0,29.79,WNW,292,4.7,-999.0,65,-99.99,,,0.00,Acu-Link.com,2013-08-04 10:13:00,
2013-08-04 06:28:00,68.0,55.4,29.79,SW,225,2.7,-999.0,64,-99.99,,,0.00,Acu-Link.com,2013-08-04 10:28:00,
2013-08-04 06:44:00,68.0,55.8,29.79,West,270,3.7,-999.0,65,-99.99,,,0.00,Acu-Link.com,2013-08-04 10:44:00,
2013-08-04 06:59:00,68.2,56.0,29.80,WNW,292,4.2,-999.0,65,-99.99,,,0.00,Acu-Link.com,2013-08-04 10:59:00,
2013-08-04 07:14:00,68.2,54.7,29.80,NNW,337,2.7,-999.0,62,-99.99,,,0.00,Acu-Link.com,2013-08-04 11:14:00,
2013-08-04 07:30:00,68.4,54.9,29.81,NNW,337,2.7,-999.0,62,-99.99,,,0.00,Acu-Link.com,2013-08-04 11:30:00,
2013-08-04 07:45:00,68.4,54.4,29.81,WNW,292,2.7,-999.0,61,-99.99,,,0.00,Acu-Link.com,2013-08-04 11:45:00,
2013-08-04 08:00:00,69.1,54.6,29.81,North,0,2.7,-999.0,60,-99.99,,,0.00,Acu-Link.com,2013-08-04 12:00:00,
2013-08-04 08:15:00,68.9,54.9,29.81,NNW,337,6.3,-999.0,61,-99.99,,,0.00,Acu-Link.com,2013-08-04 12:15:00,
2013-08-04 08:30:00,69.1,55.1,29.81,WSW,247,4.7,-999.0,61,-99.99,,,0.00,Acu-Link.com,2013-08-04 12:30:00,
2013-08-04 08:45:00,69.3,55.3,29.80,West,270,4.7,-999.0,61,-99.99,,,0.00,Acu-Link.com,2013-08-04 12:45:00,
2013-08-04 09:00:00,70.0,55.5,29.80,East,90,1.7,-999.0,60,-99.99,,,0.00,Acu-Link.com,2013-08-04 13:00:00,
2013-08-04 09:15:00,72.3,56.7,29.80,WNW,292,4.2,-999.0,58,-99.99,,,0.00,Acu-Link.com,2013-08-04 13:15:00,
2013-08-04 09:31:00,73.0,56.4,29.80,WNW,292,4.7,-999.0,56,-99.99,,,0.00,Acu-Link.com,2013-08-04 13:31:00,
2013-08-04 09:46:00,73.9,56.2,29.80,North,0,4.7,-999.0,54,-99.99,,,0.00,Acu-Link.com,2013-08-04 13:46:00,
2013-08-04 10:01:00,74.8,56.5,29.81,NNW,337,4.7,-999.0,53,-99.99,,,0.00,Acu-Link.com,2013-08-04 14:01:00,
2013-08-04 10:17:00,75.0,56.7,29.80,NNE,22,6.3,-999.0,53,-99.99,,,0.00,Acu-Link.com,2013-08-04 14:17:00,
2013-08-04 10:31:00,76.5,57.5,29.80,NW,315,5.8,-999.0,52,-99.99,,,0.00,Acu-Link.com,2013-08-04 14:31:00,
2013-08-04 10:47:00,77.2,57.7,29.80,West,270,3.7,-999.0,51,-99.99,,,0.00,Acu-Link.com,2013-08-04 14:47:00,
2013-08-04 11:03:00,79.0,58.2,29.80,NNE,22,2.2,-999.0,49,-99.99,,,0.00,Acu-Link.com,2013-08-04 15:03:00,
2013-08-04 11:20:00,78.6,56.7,29.80,WNW,292,3.7,-999.0,47,-99.99,,,0.00,Acu-Link.com,2013-08-04 15:20:00,
2013-08-04 11:35:00,79.5,56.3,29.80,WNW,292,11.4,-999.0,45,-99.99,,,0.00,Acu-Link.com,2013-08-04 15:35:00,
2013-08-04 11:50:00,80.4,57.1,29.80,West,270,2.2,-999.0,45,-99.99,,,0.00,Acu-Link.com,2013-08-04 15:50:00,
2013-08-04 12:05:00,77.9,56.6,29.79,NNE,22,2.2,-999.0,48,-99.99,,,0.00,Acu-Link.com,2013-08-04 16:05:00,
2013-08-04 12:20:00,79.5,57.5,29.79,West,270,5.8,-999.0,47,-99.99,,,0.00,Acu-Link.com,2013-08-04 16:20:00,
2013-08-04 12:35:00,79.5,57.5,29.79,East,90,9.4,-999.0,47,-99.99,,,0.00,Acu-Link.com,2013-08-04 16:35:00,
2013-08-04 12:51:00,81.0,58.8,29.78,NW,315,8.3,-999.0,47,-99.99,,,0.00,Acu-Link.com,2013-08-04 16:51:00,
2013-08-04 13:06:00,80.6,57.3,29.78,NNW,337,10.4,-999.0,45,-99.99,,,0.00,Acu-Link.com,2013-08-04 17:06:00,
2013-08-04 13:37:00,80.2,56.9,29.77,NW,315,8.9,-999.0,45,-99.99,,,0.00,Acu-Link.com,2013-08-04 17:37:00,
2013-08-04 13:52:00,80.1,56.2,29.77,NNW,337,13.5,-999.0,44,-99.99,,,0.00,Acu-Link.com,2013-08-04 17:52:00,
2013-08-04 14:07:00,80.4,57.1,29.76,North,0,6.8,-999.0,45,-99.99,,,0.00,Acu-Link.com,2013-08-04 18:07:00,
2013-08-04 14:22:00,80.2,56.3,29.76,West,270,11.9,-999.0,44,-99.99,,,0.00,Acu-Link.com,2013-08-04 18:22:00,
2013-08-04 14:37:00,81.1,57.1,29.76,West,270,11.9,-999.0,44,-99.99,,,0.00,Acu-Link.com,2013-08-04 18:37:00,
2013-08-04 14:52:00,82.0,56.6,29.77,West,270,6.3,-999.0,42,-99.99,,,0.00,Acu-Link.com,2013-08-04 18:52:00,
2013-08-04 15:08:00,81.5,56.8,29.76,West,270,3.7,-999.0,43,-99.99,,,0.00,Acu-Link.com,2013-08-04 19:08:00,
2013-08-04 15:23:00,81.1,55.8,29.76,WNW,292,8.9,-999.0,42,-99.99,,,0.00,Acu-Link.com,2013-08-04 19:23:00,
2013-08-04 15:38:00,81.7,56.3,29.76,WSW,247,7.3,-999.0,42,-99.99,,,0.00,Acu-Link.com,2013-08-04 19:38:00,
2013-08-04 15:53:00,81.1,55.1,29.75,West,270,12.5,-999.0,41,-99.99,,,0.00,Acu-Link.com,2013-08-04 19:53:00,
2013-08-04 16:08:00,82.2,55.4,29.75,WSW,247,7.8,-999.0,40,-99.99,,,0.00,Acu-Link.com,2013-08-04 20:08:00,
2013-08-04 16:23:00,81.9,55.9,29.75,WNW,292,9.9,-999.0,41,-99.99,,,0.00,Acu-Link.com,2013-08-04 20:23:00,
2013-08-04 16:38:00,81.1,55.1,29.75,WNW,292,7.8,-999.0,41,-99.99,,,0.00,Acu-Link.com,2013-08-04 20:38:00,
2013-08-04 16:54:00,82.4,56.3,29.75,West,270,4.7,-999.0,41,-99.99,,,0.00,Acu-Link.com,2013-08-04 20:54:00,
2013-08-04 17:09:00,81.7,57.0,29.75,NW,315,9.4,-999.0,43,-99.99,,,0.00,Acu-Link.com,2013-08-04 21:09:00,
2013-08-04 17:25:00,81.3,57.3,29.76,NW,315,9.4,-999.0,44,-99.99,,,0.00,Acu-Link.com,2013-08-04 21:25:00,
2013-08-04 17:40:00,80.1,56.2,29.76,NNW,337,9.4,-999.0,44,-99.99,,,0.00,Acu-Link.com,2013-08-04 21:40:00,
2013-08-04 17:55:00,79.9,56.6,29.76,West,270,6.8,-999.0,45,-99.99,,,0.00,Acu-Link.com,2013-08-04 21:55:00,
2013-08-04 18:10:00,80.2,56.9,29.76,WSW,247,8.9,-999.0,45,-99.99,,,0.00,Acu-Link.com,2013-08-04 22:10:00,
2013-08-04 18:25:00,82.0,56.6,29.76,WNW,292,2.7,-999.0,42,-99.99,,,0.00,Acu-Link.com,2013-08-04 22:25:00,
2013-08-04 18:40:00,81.3,57.3,29.77,West,270,6.3,-999.0,44,-99.99,,,0.00,Acu-Link.com,2013-08-04 22:40:00,
2013-08-04 18:55:00,79.5,56.9,29.78,WNW,292,9.9,-999.0,46,-99.99,,,0.00,Acu-Link.com,2013-08-04 22:55:00,
2013-08-04 19:10:00,79.5,57.5,29.78,West,270,6.8,-999.0,47,-99.99,,,0.00,Acu-Link.com,2013-08-04 23:10:00,
2013-08-04 19:25:00,80.2,56.3,29.79,NNE,22,6.3,-999.0,44,-99.99,,,0.00,Acu-Link.com,2013-08-04 23:25:00,
2013-08-04 19:40:00,79.3,56.7,29.79,SW,225,4.7,-999.0,46,-99.99,,,0.00,Acu-Link.com,2013-08-04 23:40:00,
2013-08-04 19:57:00,78.3,56.4,29.80,North,0,6.3,-999.0,47,-99.99,,,0.00,Acu-Link.com,2013-08-04 23:57:00,
2013-08-04 20:12:00,76.5,54.8,29.81,NNE,22,3.7,-999.0,47,-99.99,,,0.00,Acu-Link.com,2013-08-05 00:12:00,
2013-08-04 20:28:00,75.6,54.5,29.82,West,270,7.8,-999.0,48,-99.99,,,0.00,Acu-Link.com,2013-08-05 00:28:00,
2013-08-04 20:43:00,75.0,53.4,29.82,NNW,337,9.9,-999.0,47,-99.99,,,0.00,Acu-Link.com,2013-08-05 00:43:00,
2013-08-04 20:58:00,74.7,53.1,29.84,NNW,337,4.2,-999.0,47,-99.99,,,0.00,Acu-Link.com,2013-08-05 00:58:00,
2013-08-04 21:13:00,74.1,53.1,29.85,SE,135,3.2,-999.0,48,-99.99,,,0.00,Acu-Link.com,2013-08-05 01:13:00,
2013-08-04 21:28:00,73.9,53.5,29.86,North,0,5.8,-999.0,49,-99.99,,,0.00,Acu-Link.com,2013-08-05 01:28:00,
2013-08-04 21:43:00,73.4,53.6,29.86,WNW,292,2.7,-999.0,50,-99.99,,,0.00,Acu-Link.com,2013-08-05 01:43:00,
2013-08-04 21:58:00,73.0,53.2,29.87,NNW,337,6.3,-999.0,50,-99.99,,,0.00,Acu-Link.com,2013-08-05 01:58:00,
2013-08-04 22:13:00,72.5,53.3,29.87,WNW,292,6.3,-999.0,51,-99.99,,,0.00,Acu-Link.com,2013-08-05 02:13:00,
2013-08-04 22:28:00,72.1,53.5,29.87,West,270,9.9,-999.0,52,-99.99,,,0.00,Acu-Link.com,2013-08-05 02:28:00,
2013-08-04 22:43:00,71.8,53.2,29.88,WNW,292,11.4,-999.0,52,-99.99,,,0.00,Acu-Link.com,2013-08-05 02:43:00,
2013-08-04 22:58:00,71.2,52.7,29.88,WNW,292,4.7,-999.0,52,-99.99,,,0.00,Acu-Link.com,2013-08-05 02:58:00,
2013-08-04 23:14:00,70.7,52.7,29.88,WSW,247,5.3,-999.0,53,-99.99,,,0.00,Acu-Link.com,2013-08-05 03:14:00,
2013-08-04 23:29:00,70.2,52.3,29.88,NW,315,5.8,-999.0,53,-99.99,,,0.00,Acu-Link.com,2013-08-05 03:29:00,
2013-08-04 23:44:00,69.8,52.4,29.88,WNW,292,6.8,-999.0,54,-99.99,,,0.00,Acu-Link.com,2013-08-05 03:44:00,
2013-08-04 23:59:00,69.1,51.7,29.88,WNW,292,4.2,-999.0,54,-99.99,,,0.00,Acu-Link.com,2013-08-05 03:59:00,